owner,sensor,date,latitude,longitude,vertical_datum,sea_water_practical_salinity,qcFlag 
TABS,ioos:station:wmo:42051:1,2017-07-01T00:00:00Z,29.6350,-93.6417,2.0,12.771,11111222 
TABS,ioos:station:wmo:42051:1,2017-07-01T00:30:00Z,29.6350,-93.6417,2.0,12.7592,11111222 
TABS,ioos:station:wmo:42051:1,2017-07-01T01:00:00Z,29.6350,-93.6417,2.0,12.9459,11111222 
TABS,ioos:station:wmo:42051:1,2017-07-01T01:30:00Z,29.6350,-93.6417,2.0,13.3458,11111222 
TABS,ioos:station:wmo:42051:1,2017-07-01T02:00:00Z,29.6350,-93.6417,2.0,13.4146,11111222 
TABS,ioos:station:wmo:42051:1,2017-07-01T02:30:00Z,29.6350,-93.6417,2.0,13.5634,11111222 
TABS,ioos:station:wmo:42051:1,2017-07-01T03:00:00Z,29.6350,-93.6417,2.0,13.9105,11111222 
TABS,ioos:station:wmo:42051:1,2017-07-01T03:30:00Z,29.6350,-93.6417,2.0,13.7796,11111222 
TABS,ioos:station:wmo:42051:1,2017-07-01T04:00:00Z,29.6350,-93.6417,2.0,13.7412,11111222 
TABS,ioos:station:wmo:42051:1,2017-07-01T04:30:00Z,29.6350,-93.6417,2.0,13.6894,11111222 
TABS,ioos:station:wmo:42051:1,2017-07-01T05:00:00Z,29.6350,-93.6417,2.0,13.7121,11111222 
TABS,ioos:station:wmo:42051:1,2017-07-01T05:30:00Z,29.6350,-93.6417,2.0,13.6241,11111222 
TABS,ioos:station:wmo:42051:1,2017-07-01T06:00:00Z,29.6350,-93.6417,2.0,13.7956,11111222 
TABS,ioos:station:wmo:42051:1,2017-07-01T06:30:00Z,29.6350,-93.6417,2.0,14.2899,11111222 
TABS,ioos:station:wmo:42051:1,2017-07-01T07:00:00Z,29.6350,-93.6417,2.0,14.3272,11111222 
TABS,ioos:station:wmo:42051:1,2017-07-01T07:30:00Z,29.6350,-93.6417,2.0,14.1873,11111222 
TABS,ioos:station:wmo:42051:1,2017-07-01T08:00:00Z,29.6350,-93.6417,2.0,14.5089,11111222 
TABS,ioos:station:wmo:42051:1,2017-07-01T08:30:00Z,29.6350,-93.6417,2.0,14.7012,11111222 
TABS,ioos:station:wmo:42051:1,2017-07-01T09:00:00Z,29.6350,-93.6417,2.0,14.7046,11111222 
TABS,ioos:station:wmo:42051:1,2017-07-01T09:30:00Z,29.6350,-93.6417,2.0,14.6605,11111222 
TABS,ioos:station:wmo:42051:1,2017-07-01T10:00:00Z,29.6350,-93.6417,2.0,14.6143,11111222 
TABS,ioos:station:wmo:42051:1,2017-07-01T10:30:00Z,29.6350,-93.6417,2.0,14.2487,11111222 
TABS,ioos:station:wmo:42051:1,2017-07-01T11:00:00Z,29.6350,-93.6417,2.0,14.0607,11111222 
TABS,ioos:station:wmo:42051:1,2017-07-01T11:30:00Z,29.6350,-93.6417,2.0,14.0766,11111222 
TABS,ioos:station:wmo:42051:1,2017-07-01T12:00:00Z,29.6350,-93.6417,2.0,13.9529,11111222 
TABS,ioos:station:wmo:42051:1,2017-07-01T12:30:00Z,29.6350,-93.6417,2.0,13.9617,11111222 
TABS,ioos:station:wmo:42051:1,2017-07-01T13:00:00Z,29.6350,-93.6417,2.0,13.1467,11111222 
TABS,ioos:station:wmo:42051:1,2017-07-01T13:30:00Z,29.6350,-93.6417,2.0,12.9581,11111222 
TABS,ioos:station:wmo:42051:1,2017-07-01T14:00:00Z,29.6350,-93.6417,2.0,12.913,11111222 
TABS,ioos:station:wmo:42051:1,2017-07-01T14:30:00Z,29.6350,-93.6417,2.0,12.7826,11111222 
TABS,ioos:station:wmo:42051:1,2017-07-01T15:00:00Z,29.6350,-93.6417,2.0,12.767,11111222 
TABS,ioos:station:wmo:42051:1,2017-07-01T15:30:00Z,29.6350,-93.6417,2.0,12.7184,11111222 
TABS,ioos:station:wmo:42051:1,2017-07-01T16:00:00Z,29.6350,-93.6417,2.0,12.7212,11111222 
TABS,ioos:station:wmo:42051:1,2017-07-01T16:30:00Z,29.6350,-93.6417,2.0,12.6933,11111222 
TABS,ioos:station:wmo:42051:1,2017-07-01T17:00:00Z,29.6350,-93.6417,2.0,12.682,11111222 
TABS,ioos:station:wmo:42051:1,2017-07-01T17:30:00Z,29.6350,-93.6417,2.0,12.7164,11111222 
TABS,ioos:station:wmo:42051:1,2017-07-01T18:00:00Z,29.6350,-93.6417,2.0,12.7593,11111222 
TABS,ioos:station:wmo:42051:1,2017-07-01T18:30:00Z,29.6350,-93.6417,2.0,13.0389,11111222 
TABS,ioos:station:wmo:42051:1,2017-07-01T19:00:00Z,29.6350,-93.6417,2.0,13.1529,11111222 
TABS,ioos:station:wmo:42051:1,2017-07-01T19:30:00Z,29.6350,-93.6417,2.0,13.3073,11111222 
TABS,ioos:station:wmo:42051:1,2017-07-01T20:00:00Z,29.6350,-93.6417,2.0,13.4441,11111222 
TABS,ioos:station:wmo:42051:1,2017-07-01T20:30:00Z,29.6350,-93.6417,2.0,13.5801,11111222 
TABS,ioos:station:wmo:42051:1,2017-07-01T21:00:00Z,29.6350,-93.6417,2.0,13.7417,11111222 
TABS,ioos:station:wmo:42051:1,2017-07-01T21:30:00Z,29.6350,-93.6417,2.0,13.9431,11111222 
TABS,ioos:station:wmo:42051:1,2017-07-01T22:00:00Z,29.6350,-93.6417,2.0,14.189,11111222 
TABS,ioos:station:wmo:42051:1,2017-07-01T22:30:00Z,29.6350,-93.6417,2.0,14.1419,11111222 
TABS,ioos:station:wmo:42051:1,2017-07-01T23:00:00Z,29.6350,-93.6417,2.0,14.1188,11111222 
TABS,ioos:station:wmo:42051:1,2017-07-01T23:30:00Z,29.6350,-93.6417,2.0,14.0898,11111222 
TABS,ioos:station:wmo:42051:1,2017-07-02T00:00:00Z,29.6350,-93.6417,2.0,14.0485,11111222 
TABS,ioos:station:wmo:42051:1,2017-07-02T00:30:00Z,29.6350,-93.6417,2.0,14.0223,11111222 
TABS,ioos:station:wmo:42051:1,2017-07-02T01:00:00Z,29.6350,-93.6417,2.0,13.9641,11111222 
TABS,ioos:station:wmo:42051:1,2017-07-02T01:30:00Z,29.6350,-93.6417,2.0,13.7461,11111222 
TABS,ioos:station:wmo:42051:1,2017-07-02T02:00:00Z,29.6350,-93.6417,2.0,13.7552,11111222 
TABS,ioos:station:wmo:42051:1,2017-07-02T02:30:00Z,29.6350,-93.6417,2.0,13.8179,11111222 
TABS,ioos:station:wmo:42051:1,2017-07-02T03:00:00Z,29.6350,-93.6417,2.0,13.8768,11111222 
TABS,ioos:station:wmo:42051:1,2017-07-02T03:30:00Z,29.6350,-93.6417,2.0,13.9181,11111222 
TABS,ioos:station:wmo:42051:1,2017-07-02T04:00:00Z,29.6350,-93.6417,2.0,13.9271,11111222 
TABS,ioos:station:wmo:42051:1,2017-07-02T04:30:00Z,29.6350,-93.6417,2.0,13.9934,11111222 
TABS,ioos:station:wmo:42051:1,2017-07-02T05:00:00Z,29.6350,-93.6417,2.0,14.0327,11111222 
TABS,ioos:station:wmo:42051:1,2017-07-02T05:30:00Z,29.6350,-93.6417,2.0,14.0646,11111222 
TABS,ioos:station:wmo:42051:1,2017-07-02T06:00:00Z,29.6350,-93.6417,2.0,13.7824,11111222 
TABS,ioos:station:wmo:42051:1,2017-07-02T06:30:00Z,29.6350,-93.6417,2.0,13.8215,11111222 
TABS,ioos:station:wmo:42051:1,2017-07-02T07:00:00Z,29.6350,-93.6417,2.0,13.6933,11111222 
TABS,ioos:station:wmo:42051:1,2017-07-02T07:30:00Z,29.6350,-93.6417,2.0,13.5667,11111222 
TABS,ioos:station:wmo:42051:1,2017-07-02T08:00:00Z,29.6350,-93.6417,2.0,13.4261,11111222 
TABS,ioos:station:wmo:42051:1,2017-07-02T08:30:00Z,29.6350,-93.6417,2.0,13.4619,11111222 
TABS,ioos:station:wmo:42051:1,2017-07-02T09:00:00Z,29.6350,-93.6417,2.0,13.4963,11111222 
TABS,ioos:station:wmo:42051:1,2017-07-02T09:30:00Z,29.6350,-93.6417,2.0,13.7082,11111222 
TABS,ioos:station:wmo:42051:1,2017-07-02T10:00:00Z,29.6350,-93.6417,2.0,13.7913,11111222 
TABS,ioos:station:wmo:42051:1,2017-07-02T10:30:00Z,29.6350,-93.6417,2.0,13.8724,11111222 
TABS,ioos:station:wmo:42051:1,2017-07-02T11:00:00Z,29.6350,-93.6417,2.0,13.8039,11111222 
TABS,ioos:station:wmo:42051:1,2017-07-02T11:30:00Z,29.6350,-93.6417,2.0,13.8483,11111222 
TABS,ioos:station:wmo:42051:1,2017-07-02T12:00:00Z,29.6350,-93.6417,2.0,14.0475,11111222 
TABS,ioos:station:wmo:42051:1,2017-07-02T12:30:00Z,29.6350,-93.6417,2.0,14.2234,11111222 
TABS,ioos:station:wmo:42051:1,2017-07-02T13:00:00Z,29.6350,-93.6417,2.0,14.1999,11111222 
TABS,ioos:station:wmo:42051:1,2017-07-02T13:30:00Z,29.6350,-93.6417,2.0,14.1947,11111222 
TABS,ioos:station:wmo:42051:1,2017-07-02T14:00:00Z,29.6350,-93.6417,2.0,14.1279,11111222 
TABS,ioos:station:wmo:42051:1,2017-07-02T14:30:00Z,29.6350,-93.6417,2.0,14.126,11111222 
TABS,ioos:station:wmo:42051:1,2017-07-02T15:00:00Z,29.6350,-93.6417,2.0,14.1025,11111222 
TABS,ioos:station:wmo:42051:1,2017-07-02T15:30:00Z,29.6350,-93.6417,2.0,14.1145,11111222 
TABS,ioos:station:wmo:42051:1,2017-07-02T16:00:00Z,29.6350,-93.6417,2.0,14.1385,11111222 
TABS,ioos:station:wmo:42051:1,2017-07-02T16:30:00Z,29.6350,-93.6417,2.0,14.0786,11111222 
TABS,ioos:station:wmo:42051:1,2017-07-02T17:00:00Z,29.6350,-93.6417,2.0,13.9859,11111222 
TABS,ioos:station:wmo:42051:1,2017-07-02T17:30:00Z,29.6350,-93.6417,2.0,13.9104,11111222 
TABS,ioos:station:wmo:42051:1,2017-07-02T18:00:00Z,29.6350,-93.6417,2.0,14.025,11111222 
TABS,ioos:station:wmo:42051:1,2017-07-02T18:30:00Z,29.6350,-93.6417,2.0,14.0422,11111222 
TABS,ioos:station:wmo:42051:1,2017-07-02T19:00:00Z,29.6350,-93.6417,2.0,14.095,11111222 
TABS,ioos:station:wmo:42051:1,2017-07-02T19:30:00Z,29.6350,-93.6417,2.0,14.1476,11111222 
TABS,ioos:station:wmo:42051:1,2017-07-02T20:00:00Z,29.6350,-93.6417,2.0,14.2267,11111222 
TABS,ioos:station:wmo:42051:1,2017-07-02T20:30:00Z,29.6350,-93.6417,2.0,13.7652,11111222 
TABS,ioos:station:wmo:42051:1,2017-07-02T21:00:00Z,29.6350,-93.6417,2.0,13.3556,11111222 
TABS,ioos:station:wmo:42051:1,2017-07-02T21:30:00Z,29.6350,-93.6417,2.0,13.2999,11111222 
TABS,ioos:station:wmo:42051:1,2017-07-02T22:00:00Z,29.6350,-93.6417,2.0,13.2231,11111222 
TABS,ioos:station:wmo:42051:1,2017-07-02T22:30:00Z,29.6350,-93.6417,2.0,13.3022,11111222 
TABS,ioos:station:wmo:42051:1,2017-07-02T23:00:00Z,29.6350,-93.6417,2.0,13.3464,11111222 
TABS,ioos:station:wmo:42051:1,2017-07-02T23:30:00Z,29.6350,-93.6417,2.0,13.5761,11111222 
TABS,ioos:station:wmo:42051:1,2017-07-03T00:00:00Z,29.6350,-93.6417,2.0,13.5702,11111222 
TABS,ioos:station:wmo:42051:1,2017-07-03T00:30:00Z,29.6350,-93.6417,2.0,13.5964,11111222 
TABS,ioos:station:wmo:42051:1,2017-07-03T01:00:00Z,29.6350,-93.6417,2.0,13.7548,11111222 
TABS,ioos:station:wmo:42051:1,2017-07-03T01:30:00Z,29.6350,-93.6417,2.0,14.0258,11111222 
TABS,ioos:station:wmo:42051:1,2017-07-03T02:00:00Z,29.6350,-93.6417,2.0,14.0596,11111222 
TABS,ioos:station:wmo:42051:1,2017-07-03T02:30:00Z,29.6350,-93.6417,2.0,14.0844,11111222 
TABS,ioos:station:wmo:42051:1,2017-07-03T03:00:00Z,29.6350,-93.6417,2.0,14.1022,11111222 
TABS,ioos:station:wmo:42051:1,2017-07-03T03:30:00Z,29.6350,-93.6417,2.0,14.0296,11111222 
TABS,ioos:station:wmo:42051:1,2017-07-03T04:00:00Z,29.6350,-93.6417,2.0,13.9886,11111222 
TABS,ioos:station:wmo:42051:1,2017-07-03T04:30:00Z,29.6350,-93.6417,2.0,13.9934,11111222 
TABS,ioos:station:wmo:42051:1,2017-07-03T05:00:00Z,29.6350,-93.6417,2.0,13.9597,11111222 
TABS,ioos:station:wmo:42051:1,2017-07-03T05:30:00Z,29.6350,-93.6417,2.0,13.9613,11111222 
TABS,ioos:station:wmo:42051:1,2017-07-03T06:00:00Z,29.6350,-93.6417,2.0,13.987,11111222 
TABS,ioos:station:wmo:42051:1,2017-07-03T06:30:00Z,29.6350,-93.6417,2.0,14.0639,11111222 
TABS,ioos:station:wmo:42051:1,2017-07-03T07:00:00Z,29.6350,-93.6417,2.0,14.1406,11111222 
TABS,ioos:station:wmo:42051:1,2017-07-03T07:30:00Z,29.6350,-93.6417,2.0,14.2264,11111222 
TABS,ioos:station:wmo:42051:1,2017-07-03T08:00:00Z,29.6350,-93.6417,2.0,14.3124,11111222 
TABS,ioos:station:wmo:42051:1,2017-07-03T08:30:00Z,29.6350,-93.6417,2.0,13.7752,11111222 
TABS,ioos:station:wmo:42051:1,2017-07-03T09:00:00Z,29.6350,-93.6417,2.0,13.7675,11111222 
TABS,ioos:station:wmo:42051:1,2017-07-03T09:30:00Z,29.6350,-93.6417,2.0,13.8216,11111222 
TABS,ioos:station:wmo:42051:1,2017-07-03T10:00:00Z,29.6350,-93.6417,2.0,13.9221,11111222 
TABS,ioos:station:wmo:42051:1,2017-07-03T10:30:00Z,29.6350,-93.6417,2.0,13.9378,11111222 
TABS,ioos:station:wmo:42051:1,2017-07-03T11:00:00Z,29.6350,-93.6417,2.0,13.8939,11111222 
TABS,ioos:station:wmo:42051:1,2017-07-03T11:30:00Z,29.6350,-93.6417,2.0,13.981,11111222 
TABS,ioos:station:wmo:42051:1,2017-07-03T12:00:00Z,29.6350,-93.6417,2.0,13.8733,11111222 
TABS,ioos:station:wmo:42051:1,2017-07-03T12:30:00Z,29.6350,-93.6417,2.0,13.9958,11111222 
TABS,ioos:station:wmo:42051:1,2017-07-03T13:00:00Z,29.6350,-93.6417,2.0,13.9148,11111222 
TABS,ioos:station:wmo:42051:1,2017-07-03T13:30:00Z,29.6350,-93.6417,2.0,13.9278,11111222 
TABS,ioos:station:wmo:42051:1,2017-07-03T14:00:00Z,29.6350,-93.6417,2.0,13.9305,11111222 
TABS,ioos:station:wmo:42051:1,2017-07-03T14:30:00Z,29.6350,-93.6417,2.0,13.929,11111222 
TABS,ioos:station:wmo:42051:1,2017-07-03T15:00:00Z,29.6350,-93.6417,2.0,13.8492,11111222 
TABS,ioos:station:wmo:42051:1,2017-07-03T15:30:00Z,29.6350,-93.6417,2.0,13.8937,11111222 
TABS,ioos:station:wmo:42051:1,2017-07-03T16:00:00Z,29.6350,-93.6417,2.0,13.8743,11111222 
TABS,ioos:station:wmo:42051:1,2017-07-03T16:30:00Z,29.6350,-93.6417,2.0,13.9075,11111222 
TABS,ioos:station:wmo:42051:1,2017-07-03T17:00:00Z,29.6350,-93.6417,2.0,13.9347,11111222 
TABS,ioos:station:wmo:42051:1,2017-07-03T17:30:00Z,29.6350,-93.6417,2.0,13.9304,11111222 
TABS,ioos:station:wmo:42051:1,2017-07-03T18:00:00Z,29.6350,-93.6417,2.0,13.8957,11111222 
TABS,ioos:station:wmo:42051:1,2017-07-03T18:30:00Z,29.6350,-93.6417,2.0,13.8867,11111222 
TABS,ioos:station:wmo:42051:1,2017-07-03T19:00:00Z,29.6350,-93.6417,2.0,13.8581,11111222 
TABS,ioos:station:wmo:42051:1,2017-07-03T19:30:00Z,29.6350,-93.6417,2.0,13.8189,11111222 
TABS,ioos:station:wmo:42051:1,2017-07-03T20:00:00Z,29.6350,-93.6417,2.0,13.7709,11111222 
TABS,ioos:station:wmo:42051:1,2017-07-03T20:30:00Z,29.6350,-93.6417,2.0,13.7588,11111222 
TABS,ioos:station:wmo:42051:1,2017-07-03T21:00:00Z,29.6350,-93.6417,2.0,13.7065,11111222 
TABS,ioos:station:wmo:42051:1,2017-07-03T21:30:00Z,29.6350,-93.6417,2.0,13.6497,11111222 
TABS,ioos:station:wmo:42051:1,2017-07-03T22:00:00Z,29.6350,-93.6417,2.0,13.6722,11111222 
TABS,ioos:station:wmo:42051:1,2017-07-03T22:30:00Z,29.6350,-93.6417,2.0,13.7019,11111222 
TABS,ioos:station:wmo:42051:1,2017-07-03T23:00:00Z,29.6350,-93.6417,2.0,13.6997,11111222 
TABS,ioos:station:wmo:42051:1,2017-07-03T23:30:00Z,29.6350,-93.6417,2.0,13.7351,11111222 
TABS,ioos:station:wmo:42051:1,2017-07-04T00:00:00Z,29.6350,-93.6417,2.0,13.7419,11111222 
TABS,ioos:station:wmo:42051:1,2017-07-04T00:30:00Z,29.6350,-93.6417,2.0,13.7777,11111222 
TABS,ioos:station:wmo:42051:1,2017-07-04T01:00:00Z,29.6350,-93.6417,2.0,13.8186,11111222 
TABS,ioos:station:wmo:42051:1,2017-07-04T01:30:00Z,29.6350,-93.6417,2.0,13.8451,11111222 
TABS,ioos:station:wmo:42051:1,2017-07-04T02:00:00Z,29.6350,-93.6417,2.0,14.0114,11111222 
TABS,ioos:station:wmo:42051:1,2017-07-04T02:30:00Z,29.6350,-93.6417,2.0,14.3065,11111222 
TABS,ioos:station:wmo:42051:1,2017-07-04T03:00:00Z,29.6350,-93.6417,2.0,15.322,11111222 
TABS,ioos:station:wmo:42051:1,2017-07-04T03:30:00Z,29.6350,-93.6417,2.0,16.6503,11111222 
TABS,ioos:station:wmo:42051:1,2017-07-04T04:00:00Z,29.6350,-93.6417,2.0,17.2876,11111222 
TABS,ioos:station:wmo:42051:1,2017-07-04T04:30:00Z,29.6350,-93.6417,2.0,15.3686,11111222 
TABS,ioos:station:wmo:42051:1,2017-07-04T05:00:00Z,29.6350,-93.6417,2.0,14.2688,11111222 
TABS,ioos:station:wmo:42051:1,2017-07-04T05:30:00Z,29.6350,-93.6417,2.0,13.9392,11111222 
TABS,ioos:station:wmo:42051:1,2017-07-04T06:00:00Z,29.6350,-93.6417,2.0,13.7536,11111222 
TABS,ioos:station:wmo:42051:1,2017-07-04T06:30:00Z,29.6350,-93.6417,2.0,13.9507,11111222 
TABS,ioos:station:wmo:42051:1,2017-07-04T07:00:00Z,29.6350,-93.6417,2.0,14.3519,11111222 
TABS,ioos:station:wmo:42051:1,2017-07-04T07:30:00Z,29.6350,-93.6417,2.0,15.0974,11111222 
TABS,ioos:station:wmo:42051:1,2017-07-04T08:00:00Z,29.6350,-93.6417,2.0,15.7463,11111222 
TABS,ioos:station:wmo:42051:1,2017-07-04T08:30:00Z,29.6350,-93.6417,2.0,15.7198,11111222 
TABS,ioos:station:wmo:42051:1,2017-07-04T09:00:00Z,29.6350,-93.6417,2.0,16.2759,11111222 
TABS,ioos:station:wmo:42051:1,2017-07-04T09:30:00Z,29.6350,-93.6417,2.0,14.0186,11111222 
TABS,ioos:station:wmo:42051:1,2017-07-04T10:00:00Z,29.6350,-93.6417,2.0,14.0468,11111222 
TABS,ioos:station:wmo:42051:1,2017-07-04T10:30:00Z,29.6350,-93.6417,2.0,14.6297,11111222 
TABS,ioos:station:wmo:42051:1,2017-07-04T11:00:00Z,29.6350,-93.6417,2.0,15.3137,11111222 
TABS,ioos:station:wmo:42051:1,2017-07-04T11:30:00Z,29.6350,-93.6417,2.0,15.0523,11111222 
TABS,ioos:station:wmo:42051:1,2017-07-04T12:00:00Z,29.6350,-93.6417,2.0,15.2164,11111222 
TABS,ioos:station:wmo:42051:1,2017-07-04T12:30:00Z,29.6350,-93.6417,2.0,15.0936,11111222 
TABS,ioos:station:wmo:42051:1,2017-07-04T13:00:00Z,29.6350,-93.6417,2.0,16.5468,11111222 
TABS,ioos:station:wmo:42051:1,2017-07-04T13:30:00Z,29.6350,-93.6417,2.0,15.4061,11111222 
TABS,ioos:station:wmo:42051:1,2017-07-04T14:00:00Z,29.6350,-93.6417,2.0,15.774,11111222 
TABS,ioos:station:wmo:42051:1,2017-07-04T14:30:00Z,29.6350,-93.6417,2.0,17.0403,11111222 
TABS,ioos:station:wmo:42051:1,2017-07-04T15:00:00Z,29.6350,-93.6417,2.0,17.917,11111222 
TABS,ioos:station:wmo:42051:1,2017-07-04T15:30:00Z,29.6350,-93.6417,2.0,18.0647,11111222 
TABS,ioos:station:wmo:42051:1,2017-07-04T16:00:00Z,29.6350,-93.6417,2.0,18.3919,11111222 
TABS,ioos:station:wmo:42051:1,2017-07-04T16:30:00Z,29.6350,-93.6417,2.0,18.4056,11111222 
TABS,ioos:station:wmo:42051:1,2017-07-04T17:00:00Z,29.6350,-93.6417,2.0,18.7979,11111222 
TABS,ioos:station:wmo:42051:1,2017-07-04T17:30:00Z,29.6350,-93.6417,2.0,19.4649,11111222 
TABS,ioos:station:wmo:42051:1,2017-07-04T18:00:00Z,29.6350,-93.6417,2.0,19.9982,11111222 
TABS,ioos:station:wmo:42051:1,2017-07-04T18:30:00Z,29.6350,-93.6417,2.0,20.7653,11111222 
TABS,ioos:station:wmo:42051:1,2017-07-04T19:00:00Z,29.6350,-93.6417,2.0,20.5613,11111222 
TABS,ioos:station:wmo:42051:1,2017-07-04T19:30:00Z,29.6350,-93.6417,2.0,20.3699,11111222 
TABS,ioos:station:wmo:42051:1,2017-07-04T20:00:00Z,29.6350,-93.6417,2.0,20.2371,11111222 
TABS,ioos:station:wmo:42051:1,2017-07-04T20:30:00Z,29.6350,-93.6417,2.0,20.0918,11111222 
TABS,ioos:station:wmo:42051:1,2017-07-04T21:00:00Z,29.6350,-93.6417,2.0,20.0138,11111222 
TABS,ioos:station:wmo:42051:1,2017-07-04T21:30:00Z,29.6350,-93.6417,2.0,19.8075,11111222 
TABS,ioos:station:wmo:42051:1,2017-07-04T22:00:00Z,29.6350,-93.6417,2.0,19.5845,11111222 
TABS,ioos:station:wmo:42051:1,2017-07-04T22:30:00Z,29.6350,-93.6417,2.0,19.4876,11111222 
TABS,ioos:station:wmo:42051:1,2017-07-04T23:00:00Z,29.6350,-93.6417,2.0,19.2474,11111222 
TABS,ioos:station:wmo:42051:1,2017-07-04T23:30:00Z,29.6350,-93.6417,2.0,18.6862,11111222 
TABS,ioos:station:wmo:42051:1,2017-07-05T00:00:00Z,29.6350,-93.6417,2.0,18.3092,11111222 
TABS,ioos:station:wmo:42051:1,2017-07-05T00:30:00Z,29.6350,-93.6417,2.0,18.0988,11111222 
TABS,ioos:station:wmo:42051:1,2017-07-05T01:00:00Z,29.6350,-93.6417,2.0,18.1534,11111222 
TABS,ioos:station:wmo:42051:1,2017-07-05T01:30:00Z,29.6350,-93.6417,2.0,18.4349,11111222 
TABS,ioos:station:wmo:42051:1,2017-07-05T02:00:00Z,29.6350,-93.6417,2.0,18.5413,11111222 
TABS,ioos:station:wmo:42051:1,2017-07-05T02:30:00Z,29.6350,-93.6417,2.0,18.8012,11111222 
TABS,ioos:station:wmo:42051:1,2017-07-05T03:00:00Z,29.6350,-93.6417,2.0,18.9332,11111222 
TABS,ioos:station:wmo:42051:1,2017-07-05T03:30:00Z,29.6350,-93.6417,2.0,19.1259,11111222 
TABS,ioos:station:wmo:42051:1,2017-07-05T04:00:00Z,29.6350,-93.6417,2.0,19.0721,11111222 
TABS,ioos:station:wmo:42051:1,2017-07-05T04:30:00Z,29.6350,-93.6417,2.0,19.2083,11111222 
TABS,ioos:station:wmo:42051:1,2017-07-05T05:00:00Z,29.6350,-93.6417,2.0,19.2872,11111222 
TABS,ioos:station:wmo:42051:1,2017-07-05T05:30:00Z,29.6350,-93.6417,2.0,19.4566,11111222 
TABS,ioos:station:wmo:42051:1,2017-07-05T06:00:00Z,29.6350,-93.6417,2.0,19.7767,11111222 
TABS,ioos:station:wmo:42051:1,2017-07-05T06:30:00Z,29.6350,-93.6417,2.0,20.2364,11111222 
TABS,ioos:station:wmo:42051:1,2017-07-05T07:00:00Z,29.6350,-93.6417,2.0,20.2664,11111222 
TABS,ioos:station:wmo:42051:1,2017-07-05T07:30:00Z,29.6350,-93.6417,2.0,20.4631,11111222 
TABS,ioos:station:wmo:42051:1,2017-07-05T08:00:00Z,29.6350,-93.6417,2.0,20.6458,11111222 
TABS,ioos:station:wmo:42051:1,2017-07-05T08:30:00Z,29.6350,-93.6417,2.0,17.4273,11111222 
TABS,ioos:station:wmo:42051:1,2017-07-05T09:00:00Z,29.6350,-93.6417,2.0,16.5343,11111222 
TABS,ioos:station:wmo:42051:1,2017-07-05T09:30:00Z,29.6350,-93.6417,2.0,16.9254,11111222 
TABS,ioos:station:wmo:42051:1,2017-07-05T10:00:00Z,29.6350,-93.6417,2.0,16.8279,11111222 
TABS,ioos:station:wmo:42051:1,2017-07-05T15:00:00Z,29.6350,-93.6417,2.0,16.9354,11111222 
TABS,ioos:station:wmo:42051:1,2017-07-05T15:30:00Z,29.6350,-93.6417,2.0,16.6298,11111222 
TABS,ioos:station:wmo:42051:1,2017-07-05T16:00:00Z,29.6350,-93.6417,2.0,17.5318,11111222 
TABS,ioos:station:wmo:42051:1,2017-07-05T16:30:00Z,29.6350,-93.6417,2.0,17.8878,11111222 
TABS,ioos:station:wmo:42051:1,2017-07-05T17:00:00Z,29.6350,-93.6417,2.0,17.8667,11111222 
TABS,ioos:station:wmo:42051:1,2017-07-05T17:30:00Z,29.6350,-93.6417,2.0,17.591,11111222 
TABS,ioos:station:wmo:42051:1,2017-07-05T18:00:00Z,29.6350,-93.6417,2.0,17.4268,11111222 
TABS,ioos:station:wmo:42051:1,2017-07-05T18:30:00Z,29.6350,-93.6417,2.0,16.7847,11111222 
TABS,ioos:station:wmo:42051:1,2017-07-05T19:00:00Z,29.6350,-93.6417,2.0,17.1778,11111222 
TABS,ioos:station:wmo:42051:1,2017-07-05T19:30:00Z,29.6350,-93.6417,2.0,16.6108,11111222 
TABS,ioos:station:wmo:42051:1,2017-07-05T20:00:00Z,29.6350,-93.6417,2.0,16.5342,11111222 
TABS,ioos:station:wmo:42051:1,2017-07-05T20:30:00Z,29.6350,-93.6417,2.0,16.4155,11111222 
TABS,ioos:station:wmo:42051:1,2017-07-05T21:00:00Z,29.6350,-93.6417,2.0,16.3742,11111222 
TABS,ioos:station:wmo:42051:1,2017-07-05T21:30:00Z,29.6350,-93.6417,2.0,16.2009,11111222 
TABS,ioos:station:wmo:42051:1,2017-07-05T22:00:00Z,29.6350,-93.6417,2.0,15.9815,11111222 
TABS,ioos:station:wmo:42051:1,2017-07-05T22:30:00Z,29.6350,-93.6417,2.0,16.0316,11111222 
TABS,ioos:station:wmo:42051:1,2017-07-05T23:00:00Z,29.6350,-93.6417,2.0,15.992,11111222 
TABS,ioos:station:wmo:42051:1,2017-07-05T23:30:00Z,29.6350,-93.6417,2.0,15.9814,11111222 
TABS,ioos:station:wmo:42051:1,2017-07-06T00:00:00Z,29.6350,-93.6417,2.0,16.0398,11111222 
TABS,ioos:station:wmo:42051:1,2017-07-06T00:30:00Z,29.6350,-93.6417,2.0,16.2938,11111222 
TABS,ioos:station:wmo:42051:1,2017-07-06T01:00:00Z,29.6350,-93.6417,2.0,16.581,11111222 
TABS,ioos:station:wmo:42051:1,2017-07-06T01:30:00Z,29.6350,-93.6417,2.0,16.779,11111222 
TABS,ioos:station:wmo:42051:1,2017-07-06T02:00:00Z,29.6350,-93.6417,2.0,17.0013,11111222 
TABS,ioos:station:wmo:42051:1,2017-07-06T02:30:00Z,29.6350,-93.6417,2.0,17.3145,11111222 
TABS,ioos:station:wmo:42051:1,2017-07-06T03:00:00Z,29.6350,-93.6417,2.0,17.6142,11111222 
TABS,ioos:station:wmo:42051:1,2017-07-06T03:30:00Z,29.6350,-93.6417,2.0,17.8775,11111222 
TABS,ioos:station:wmo:42051:1,2017-07-06T04:00:00Z,29.6350,-93.6417,2.0,18.1778,11111222 
TABS,ioos:station:wmo:42051:1,2017-07-06T04:30:00Z,29.6350,-93.6417,2.0,18.1201,11111222 
TABS,ioos:station:wmo:42051:1,2017-07-06T05:00:00Z,29.6350,-93.6417,2.0,18.882,11111222 
TABS,ioos:station:wmo:42051:1,2017-07-06T05:30:00Z,29.6350,-93.6417,2.0,19.1223,11111222 
TABS,ioos:station:wmo:42051:1,2017-07-06T06:00:00Z,29.6350,-93.6417,2.0,19.5333,11111222 
TABS,ioos:station:wmo:42051:1,2017-07-06T06:30:00Z,29.6350,-93.6417,2.0,19.8829,11111222 
TABS,ioos:station:wmo:42051:1,2017-07-06T07:00:00Z,29.6350,-93.6417,2.0,19.9713,11111222 
TABS,ioos:station:wmo:42051:1,2017-07-06T07:30:00Z,29.6350,-93.6417,2.0,20.2287,11111222 
TABS,ioos:station:wmo:42051:1,2017-07-06T08:00:00Z,29.6350,-93.6417,2.0,20.6504,11111222 
TABS,ioos:station:wmo:42051:1,2017-07-06T08:30:00Z,29.6350,-93.6417,2.0,19.786,11111222 
TABS,ioos:station:wmo:42051:1,2017-07-06T09:00:00Z,29.6350,-93.6417,2.0,19.2191,11111222 
TABS,ioos:station:wmo:42051:1,2017-07-06T09:30:00Z,29.6350,-93.6417,2.0,18.6621,11111222 
TABS,ioos:station:wmo:42051:1,2017-07-06T10:00:00Z,29.6350,-93.6417,2.0,18.3211,11111222 
TABS,ioos:station:wmo:42051:1,2017-07-06T10:30:00Z,29.6350,-93.6417,2.0,18.131,11111222 
TABS,ioos:station:wmo:42051:1,2017-07-06T11:00:00Z,29.6350,-93.6417,2.0,17.7628,11111222 
TABS,ioos:station:wmo:42051:1,2017-07-06T11:30:00Z,29.6350,-93.6417,2.0,17.4003,11111222 
TABS,ioos:station:wmo:42051:1,2017-07-06T12:00:00Z,29.6350,-93.6417,2.0,17.3845,11111222 
TABS,ioos:station:wmo:42051:1,2017-07-06T12:30:00Z,29.6350,-93.6417,2.0,17.3042,11111222 
TABS,ioos:station:wmo:42051:1,2017-07-06T13:00:00Z,29.6350,-93.6417,2.0,17.3206,11111222 
TABS,ioos:station:wmo:42051:1,2017-07-06T13:30:00Z,29.6350,-93.6417,2.0,17.4937,11111222 
TABS,ioos:station:wmo:42051:1,2017-07-06T14:00:00Z,29.6350,-93.6417,2.0,17.517,11111222 
TABS,ioos:station:wmo:42051:1,2017-07-06T14:30:00Z,29.6350,-93.6417,2.0,17.5907,11111222 
TABS,ioos:station:wmo:42051:1,2017-07-06T15:00:00Z,29.6350,-93.6417,2.0,17.573,11111222 
TABS,ioos:station:wmo:42051:1,2017-07-06T15:30:00Z,29.6350,-93.6417,2.0,17.5736,11111222 
TABS,ioos:station:wmo:42051:1,2017-07-06T16:00:00Z,29.6350,-93.6417,2.0,17.6044,11111222 
TABS,ioos:station:wmo:42051:1,2017-07-06T16:30:00Z,29.6350,-93.6417,2.0,17.585,11111222 